,,Stat6,,Stat2,,Stat8,,Stat9,,Stat10,,Wind1,,Wind1,
time,status,PA1M_AVG,status,PR1M_SUM,status,RH1M_AVG,status,SR1M_AVG,status,TA1M_AVG,status,W1dAve1m,status,W1sAve1m,
2004-03-02, 00:00:00,VALID,917.952,VALID,0,VALID,98.0433,VALID,-0.0339617,VALID,20.4229,VALID,211,VALID,0.0436046,
2004-03-02, 00:01:00,VALID,917.964,VALID,0,VALID,98.056,VALID,-0.0339617,VALID,20.4259,VALID,211,VALID,0.192578,
2004-03-02, 00:02:00,VALID,917.971,VALID,0,VALID,98.1094,VALID,-0.0849042,VALID,20.4488,VALID,211,VALID,0.238917,
2004-03-02, 00:03:00,VALID,917.965,VALID,0,VALID,97.8589,VALID,-0.0509425,VALID,20.4294,VALID,211,VALID,0.172247,
2004-03-02, 00:04:00,VALID,917.95,VALID,0,VALID,97.8411,VALID,0,VALID,20.4162,VALID,216,VALID,0.405705,
2004-03-02, 00:05:00,VALID,917.945,VALID,0,VALID,97.9415,VALID,-0.0169808,VALID,20.4294,VALID,25,VALID,0.72745,
2004-03-02, 00:06:00,VALID,917.928,VALID,0,VALID,97.9619,VALID,-0.0509425,VALID,20.4388,VALID,20,VALID,0.712695,
2004-03-02, 00:07:00,VALID,917.899,VALID,0,VALID,97.9415,VALID,-0.0509425,VALID,20.4323,VALID,22,VALID,0.969322,
2004-03-02, 00:08:00,VALID,917.896,VALID,0,VALID,97.986,VALID,0,VALID,20.4259,VALID,21,VALID,0.880087,
2004-03-02, 00:09:00,VALID,917.871,VALID,0,VALID,97.9581,VALID,0,VALID,20.4227,VALID,17,VALID,1.01154,
2004-03-02, 00:10:00,VALID,917.855,VALID,0,VALID,98.0204,VALID,-0.0509425,VALID,20.4197,VALID,17,VALID,0.773056,
2004-03-02, 00:11:00,VALID,917.84,VALID,0,VALID,98.0407,VALID,-0.0169808,VALID,20.4294,VALID,17,VALID,0.908482,
2004-03-02, 00:12:00,VALID,917.829,VALID,0,VALID,98.0064,VALID,-0.0169808,VALID,20.4294,VALID,24,VALID,1.12462,
2004-03-02, 00:13:00,VALID,917.827,VALID,0,VALID,98.0305,VALID,-0.0849042,VALID,20.4227,VALID,23,VALID,0.865412,
2004-03-02, 00:14:00,VALID,917.804,VALID,0,VALID,98.0102,VALID,-0.0679233,VALID,20.4294,VALID,17,VALID,0.658537,
2004-03-02, 00:15:00,VALID,917.799,VALID,0,VALID,97.9835,VALID,-0.0509425,VALID,20.4323,VALID,24,VALID,0.645579,
2004-03-02, 00:16:00,VALID,917.79,VALID,0,VALID,97.972,VALID,-0.0169808,VALID,20.4291,VALID,24,VALID,0.494792,
2004-03-02, 00:17:00,VALID,917.771,VALID,0,VALID,97.925,VALID,-0.0169808,VALID,20.4227,VALID,24,VALID,0.529688,
2004-03-02, 00:18:00,VALID,917.747,VALID,0,VALID,97.9809,VALID,-0.0339617,VALID,20.4229,VALID,24,VALID,0.378089,
2004-03-02, 00:19:00,VALID,917.714,VALID,0,VALID,98.0178,VALID,-0.0339617,VALID,20.4229,VALID,24,VALID,0.680043,
2004-03-02, 00:20:00,VALID,917.694,VALID,0,VALID,97.9046,VALID,-0.0169808,VALID,20.4264,VALID,25,VALID,1.0199,
2004-03-02, 00:21:00,VALID,917.675,VALID,0,VALID,97.8614,VALID,-0.0339617,VALID,20.4033,VALID,17,VALID,0.880451,
2004-03-02, 00:22:00,VALID,917.655,VALID,0,VALID,97.8055,VALID,0,VALID,20.3807,VALID,11,VALID,0.7875,
2004-03-02, 00:23:00,VALID,917.64,VALID,0,VALID,97.7927,VALID,0,VALID,20.3551,VALID,15,VALID,0.723958,
2004-03-02, 00:24:00,VALID,917.64,VALID,0,VALID,97.9314,VALID,-0.0509425,VALID,20.3298,VALID,17,VALID,0.58085,
2004-03-02, 00:25:00,VALID,917.634,VALID,0,VALID,97.9949,VALID,-0.0509425,VALID,20.3064,VALID,24,VALID,0.734557,
2004-03-02, 00:26:00,VALID,917.62,VALID,0,VALID,98.0115,VALID,-0.0849042,VALID,20.2902,VALID,22,VALID,0.628811,
2004-03-02, 00:27:00,VALID,917.616,VALID,0,VALID,98.0636,VALID,-0.0509425,VALID,20.2875,VALID,22,VALID,0.675195,
2004-03-02, 00:28:00,VALID,917.603,VALID,0,VALID,98.0992,VALID,0,VALID,20.2776,VALID,22,VALID,0.444931,
2004-03-02, 00:29:00,VALID,917.582,VALID,0,VALID,98.0712,VALID,-0.0169808,VALID,20.2647,VALID,2,VALID,0.395712,
2004-03-02, 00:30:00,VALID,917.562,VALID,0,VALID,98.0712,VALID,-0.0339617,VALID,20.2386,VALID,347,VALID,0.213672,
2004-03-02, 00:31:00,VALID,917.526,VALID,0,VALID,98.0661,VALID,-0.0339617,VALID,20.209,VALID,2,VALID,0.708212,
2004-03-02, 00:32:00,VALID,917.506,VALID,0,VALID,98.2213,VALID,-0.0169808,VALID,20.1834,VALID,2,VALID,0.593941,
2004-03-02, 00:33:00,VALID,917.48,VALID,0,VALID,98.3612,VALID,-0.0339617,VALID,20.1968,VALID,3,VALID,0.754542,
2004-03-02, 00:34:00,VALID,917.454,VALID,0,VALID,98.4018,VALID,0,VALID,20.1804,VALID,7,VALID,0.832031,
2004-03-02, 00:35:00,VALID,917.441,VALID,0,VALID,98.4464,VALID,-0.0679233,VALID,20.174,VALID,16,VALID,0.893999,
2004-03-02, 00:36:00,VALID,917.425,VALID,0,VALID,98.487,VALID,-0.0339617,VALID,20.1613,VALID,15,VALID,0.579397,
2004-03-02, 00:37:00,VALID,917.413,VALID,0,VALID,98.5303,VALID,-0.0679233,VALID,20.1546,VALID,15,VALID,0.325838,
2004-03-02, 00:38:00,VALID,917.399,VALID,0,VALID,98.585,VALID,-0.0849042,VALID,20.1422,VALID,15,VALID,0.432884,
2004-03-02, 00:39:00,VALID,917.397,VALID,0,VALID,98.6435,VALID,-0.0169808,VALID,20.1422,VALID,16,VALID,0.691306,
2004-03-02, 00:40:00,VALID,917.377,VALID,0,VALID,98.6447,VALID,-0.0169808,VALID,20.1325,VALID,13,VALID,0.706321,
2004-03-02, 00:41:00,VALID,917.342,VALID,0,VALID,98.6117,VALID,0,VALID,20.0868,VALID,354,VALID,0.654615,
2004-03-02, 00:42:00,VALID,917.327,VALID,0,VALID,98.6358,VALID,-0.0679233,VALID,20.0642,VALID,348,VALID,0.392299,
2004-03-02, 00:43:00,VALID,917.296,VALID,0,VALID,98.7337,VALID,-0.0679233,VALID,20.0582,VALID,348,VALID,0.452943,
2004-03-02, 00:44:00,VALID,917.272,VALID,0,VALID,98.8189,VALID,-0.0339617,VALID,20.0488,VALID,348,VALID,0.0901989,
2004-03-02, 00:45:00,VALID,917.263,VALID,0,VALID,98.9029,VALID,-0.0509425,VALID,20.0421,VALID,348,VALID,0.193314,
2004-03-02, 00:46:00,VALID,917.248,VALID,0,VALID,98.9563,VALID,-0.0339617,VALID,20.0324,VALID,348,VALID,0.314503,
2004-03-02, 00:47:00,VALID,917.235,VALID,0,VALID,99.0313,VALID,-0.0339617,VALID,20.0319,VALID,348,VALID,0.307292,
2004-03-02, 00:48:00,VALID,917.234,VALID,0,VALID,99.0809,VALID,-0.0339617,VALID,20.0388,VALID,348,VALID,0.377362,
2004-03-02, 00:49:00,VALID,917.237,VALID,0,VALID,99.0389,VALID,-0.0509425,VALID,20.0222,VALID,348,VALID,0.504972,
2004-03-02, 00:50:00,VALID,917.234,VALID,0,VALID,99.0491,VALID,-0.0679233,VALID,20.0329,VALID,342,VALID,0.351381,
2004-03-02, 00:51:00,VALID,917.233,VALID,0,VALID,99.1457,VALID,-0.0509425,VALID,20.0259,VALID,343,VALID,0.24295,
2004-03-02, 00:52:00,VALID,917.217,VALID,0,VALID,99.1496,VALID,-0.0339617,VALID,20.0324,VALID,343,VALID,0.263849,
2004-03-02, 00:53:00,VALID,917.194,VALID,0,VALID,99.1508,VALID,-0.0509425,VALID,20.0495,VALID,344,VALID,0.28196,
2004-03-02, 00:54:00,VALID,917.174,VALID,0,VALID,99.1279,VALID,-0.0849042,VALID,20.049,VALID,352,VALID,0.665502,
2004-03-02, 00:55:00,VALID,917.153,VALID,0,VALID,99.1,VALID,-0.0679233,VALID,20.0455,VALID,1,VALID,0.645703,
2004-03-02, 00:56:00,VALID,917.12,VALID,0,VALID,99.0186,VALID,-0.0679233,VALID,20.0391,VALID,5,VALID,0.790483,
2004-03-02, 00:57:00,VALID,917.098,VALID,0,VALID,98.9919,VALID,-0.0679233,VALID,20.0192,VALID,17,VALID,0.796354,
2004-03-02, 00:58:00,VALID,917.075,VALID,0,VALID,98.9512,VALID,-0.0679233,VALID,20.01,VALID,18,VALID,0.74564,
2004-03-02, 00:59:00,VALID,917.052,VALID,0,VALID,98.8507,VALID,-0.0339617,VALID,19.9742,VALID,16,VALID,0.932546,
2004-03-02, 01:00:00,VALID,917.026,VALID,0,VALID,98.7693,VALID,0,VALID,19.9638,VALID,27,VALID,0.914244,
2004-03-02, 01:01:00,VALID,916.994,VALID,0,VALID,98.604,VALID,0.0679233,VALID,19.9337,VALID,30,VALID,1.1978,
2004-03-02, 01:02:00,VALID,916.99,VALID,0,VALID,98.4438,VALID,0.0849042,VALID,19.9084,VALID,37,VALID,1.19496,
2004-03-02, 01:03:00,VALID,916.976,VALID,0,VALID,98.2518,VALID,0.0849042,VALID,19.9079,VALID,31,VALID,0.950707,
2004-03-02, 01:04:00,VALID,916.966,VALID,0,VALID,98.0992,VALID,0.0679233,VALID,19.9084,VALID,18,VALID,0.496761,
2004-03-02, 01:05:00,VALID,916.951,VALID,0,VALID,97.9759,VALID,0.0679233,VALID,19.8955,VALID,351,VALID,0.840104,
2004-03-02, 01:06:00,VALID,916.929,VALID,0,VALID,97.925,VALID,0.0679233,VALID,19.8793,VALID,350,VALID,0.792436,
2004-03-02, 01:07:00,VALID,916.91,VALID,0,VALID,97.9555,VALID,0.0509425,VALID,19.8565,VALID,340,VALID,0.67168,
2004-03-02, 01:08:00,VALID,916.89,VALID,0,VALID,97.9708,VALID,0.0849042,VALID,19.8605,VALID,336,VALID,0.731105,
2004-03-02, 01:09:00,VALID,916.867,VALID,0,VALID,97.9746,VALID,0.0509425,VALID,19.8406,VALID,344,VALID,0.51726,
2004-03-02, 01:10:00,VALID,916.837,VALID,0,VALID,98.0051,VALID,0.0509425,VALID,19.8215,VALID,353,VALID,0.346354,
2004-03-02, 01:11:00,VALID,916.813,VALID,0,VALID,98.1475,VALID,0.0339617,VALID,19.8147,VALID,350,VALID,0.138529,
2004-03-02, 01:12:00,VALID,916.78,VALID,0,VALID,98.3052,VALID,0.0339617,VALID,19.812,VALID,350,VALID,0,
2004-03-02, 01:13:00,VALID,916.756,VALID,0,VALID,98.5125,VALID,0.0849042,VALID,19.8309,VALID,350,VALID,0.0012429,
2004-03-02, 01:14:00,VALID,916.733,VALID,0,VALID,98.6905,VALID,0,VALID,19.8441,VALID,350,VALID,0.195668,
2004-03-02, 01:15:00,VALID,916.717,VALID,0,VALID,98.8406,VALID,-0.0509425,VALID,19.8421,VALID,350,VALID,0.0830305,
2004-03-02, 01:16:00,VALID,916.699,VALID,0,VALID,98.9525,VALID,-0.0679233,VALID,19.8324,VALID,350,VALID,0,
2004-03-02, 01:17:00,VALID,916.675,VALID,0,VALID,99.0542,VALID,-0.0339617,VALID,19.8364,VALID,350,VALID,0.104514,
2004-03-02, 01:18:00,VALID,916.648,VALID,0,VALID,99.1279,VALID,-0.0679233,VALID,19.8234,VALID,350,VALID,0.183949,
2004-03-02, 01:19:00,VALID,916.622,VALID,0,VALID,99.2004,VALID,-0.0509425,VALID,19.8135,VALID,350,VALID,0.22619,
2004-03-02, 01:20:00,VALID,916.613,VALID,0,VALID,99.1801,VALID,-0.0679233,VALID,19.8073,VALID,350,VALID,0.0301067,
2004-03-02, 01:21:00,VALID,916.591,VALID,0,VALID,99.2449,VALID,-0.0849042,VALID,19.7877,VALID,350,VALID,0.0892079,
2004-03-02, 01:22:00,VALID,916.578,VALID,0,VALID,99.3492,VALID,-0.0509425,VALID,19.8006,VALID,350,VALID,0,
2004-03-02, 01:23:00,VALID,916.569,VALID,0,VALID,99.4318,VALID,-0.0679233,VALID,19.8041,VALID,350,VALID,0,
2004-03-02, 01:24:00,VALID,916.537,VALID,0,VALID,99.4992,VALID,-0.101885,VALID,19.8071,VALID,350,VALID,0.00328947,
2004-03-02, 01:25:00,VALID,916.516,VALID,0,VALID,99.5374,VALID,-0.101885,VALID,19.8105,VALID,350,VALID,0.0480183,
2004-03-02, 01:26:00,VALID,916.499,VALID,0,VALID,99.5488,VALID,-0.0849042,VALID,19.7941,VALID,350,VALID,0.094494,
2004-03-02, 01:27:00,VALID,916.474,VALID,0,VALID,99.5806,VALID,-0.0679233,VALID,19.8008,VALID,350,VALID,0,
2004-03-02, 01:28:00,VALID,916.458,VALID,0,VALID,99.6099,VALID,-0.0509425,VALID,19.7976,VALID,350,VALID,0.238459,
2004-03-02, 01:29:00,VALID,916.46,VALID,0,VALID,99.634,VALID,-0.101885,VALID,19.7877,VALID,350,VALID,0.0360577,
2004-03-02, 01:30:00,VALID,916.454,VALID,0,VALID,99.62,VALID,-0.0849042,VALID,19.7882,VALID,350,VALID,0.192835,
2004-03-02, 01:31:00,VALID,916.446,VALID,0,VALID,99.5679,VALID,-0.0679233,VALID,19.7556,VALID,355,VALID,0.244186,
2004-03-02, 01:32:00,VALID,916.439,VALID,0,VALID,99.5768,VALID,-0.0849042,VALID,19.7425,VALID,355,VALID,0,
2004-03-02, 01:33:00,VALID,916.432,VALID,0,VALID,99.5743,VALID,-0.0339617,VALID,19.7559,VALID,355,VALID,0.16311,
2004-03-02, 01:34:00,VALID,916.404,VALID,0,VALID,99.5743,VALID,-0.0849042,VALID,19.7718,VALID,355,VALID,0.436955,
2004-03-02, 01:35:00,VALID,916.367,VALID,0,VALID,99.5374,VALID,-0.0849042,VALID,19.7623,VALID,15,VALID,0.563802,
2004-03-02, 01:36:00,VALID,916.346,VALID,0,VALID,99.5069,VALID,-0.0849042,VALID,19.7621,VALID,16,VALID,0.549183,
2004-03-02, 01:37:00,VALID,916.318,VALID,0,VALID,99.4242,VALID,-0.0849042,VALID,19.7753,VALID,16,VALID,0.542151,
2004-03-02, 01:38:00,VALID,916.29,VALID,0,VALID,99.2411,VALID,-0.101885,VALID,19.7618,VALID,16,VALID,0.423209,
2004-03-02, 01:39:00,VALID,916.27,VALID,0,VALID,99.0542,VALID,-0.0509425,VALID,19.7554,VALID,16,VALID,0.354288,
2004-03-02, 01:40:00,VALID,916.232,VALID,0,VALID,98.9575,VALID,-0.0849042,VALID,19.7489,VALID,19,VALID,0.54082,
2004-03-02, 01:41:00,VALID,916.216,VALID,0,VALID,98.7795,VALID,-0.0849042,VALID,19.7559,VALID,23,VALID,0.377778,
2004-03-02, 01:42:00,VALID,916.213,VALID,0,VALID,98.6117,VALID,-0.0339617,VALID,19.7462,VALID,23,VALID,0.0980283,
2004-03-02, 01:43:00,VALID,916.195,VALID,0,VALID,98.4921,VALID,-0.0339617,VALID,19.7104,VALID,23,VALID,0,
2004-03-02, 01:44:00,VALID,916.168,VALID,0,VALID,98.4603,VALID,-0.0679233,VALID,19.704,VALID,23,VALID,0,
2004-03-02, 01:45:00,VALID,916.163,VALID,0,VALID,98.4629,VALID,-0.0849042,VALID,19.6975,VALID,23,VALID,0,
2004-03-02, 01:46:00,VALID,916.155,VALID,0,VALID,98.4006,VALID,-0.101885,VALID,19.6943,VALID,23,VALID,0,
2004-03-02, 01:47:00,VALID,916.145,VALID,0,VALID,98.3599,VALID,-0.101885,VALID,19.6781,VALID,23,VALID,0,
2004-03-02, 01:48:00,VALID,916.138,VALID,0,VALID,98.3256,VALID,-0.0509425,VALID,19.6652,VALID,23,VALID,0,
2004-03-02, 01:49:00,VALID,916.109,VALID,0,VALID,98.2658,VALID,-0.0679233,VALID,19.6625,VALID,24,VALID,0.281622,
2004-03-02, 01:50:00,VALID,916.094,VALID,0,VALID,98.2073,VALID,-0.0509425,VALID,19.626,VALID,39,VALID,0.417151,
2004-03-02, 01:51:00,VALID,916.079,VALID,0,VALID,98.2086,VALID,-0.0509425,VALID,19.6036,VALID,58,VALID,0.423921,
2004-03-02, 01:52:00,VALID,916.071,VALID,0,VALID,98.2098,VALID,-0.0679233,VALID,19.5646,VALID,58,VALID,0.11471,
2004-03-02, 01:53:00,VALID,916.067,VALID,0,VALID,98.2442,VALID,-0.0339617,VALID,19.5457,VALID,58,VALID,0.107244,
2004-03-02, 01:54:00,VALID,916.068,VALID,0,VALID,98.3205,VALID,-0.0509425,VALID,19.5199,VALID,58,VALID,0.149609,
2004-03-02, 01:55:00,VALID,916.057,VALID,0,VALID,98.4171,VALID,-0.0509425,VALID,19.4938,VALID,58,VALID,0.151344,
2004-03-02, 01:56:00,VALID,916.071,VALID,0,VALID,98.4362,VALID,-0.0339617,VALID,19.4844,VALID,58,VALID,0,
2004-03-02, 01:57:00,VALID,916.033,VALID,0,VALID,98.4642,VALID,-0.0679233,VALID,19.459,VALID,58,VALID,0,
2004-03-02, 01:58:00,VALID,916.027,VALID,0,VALID,98.5328,VALID,-0.0849042,VALID,19.4265,VALID,58,VALID,0,
2004-03-02, 01:59:00,VALID,916.006,VALID,0,VALID,98.5455,VALID,-0.0679233,VALID,19.417,VALID,58,VALID,0,
2004-03-02, 02:00:00,VALID,915.99,VALID,0,VALID,98.4718,VALID,-0.0169808,VALID,19.3935,VALID,58,VALID,0.11101,
2004-03-02, 02:01:00,VALID,915.975,VALID,0,VALID,98.379,VALID,0,VALID,19.3515,VALID,58,VALID,0.363372,
2004-03-02, 02:02:00,VALID,915.966,VALID,0,VALID,98.3891,VALID,0.0169808,VALID,19.2924,VALID,58,VALID,0.320313,
2004-03-02, 02:03:00,VALID,915.955,VALID,0,VALID,98.4578,VALID,0.0169808,VALID,19.2606,VALID,58,VALID,0.270597,
2004-03-02, 02:04:00,VALID,915.936,VALID,0,VALID,98.6129,VALID,0,VALID,19.2288,VALID,58,VALID,0.170922,
2004-03-02, 02:05:00,VALID,915.922,VALID,0,VALID,98.4451,VALID,0,VALID,19.1697,VALID,58,VALID,0.0158155,
2004-03-02, 02:06:00,VALID,915.903,VALID,0,VALID,98.2899,VALID,0,VALID,19.1416,VALID,58,VALID,0.174479,
2004-03-02, 02:07:00,VALID,915.869,VALID,0,VALID,98.1768,VALID,0.0339617,VALID,19.08,VALID,58,VALID,0.328506,
2004-03-02, 02:08:00,VALID,915.858,VALID,0,VALID,98.2225,VALID,0.0169808,VALID,19.0212,VALID,58,VALID,0.237847,
2004-03-02, 02:09:00,VALID,915.839,VALID,0,VALID,98.337,VALID,0,VALID,19.006,VALID,58,VALID,0.0711806,
2004-03-02, 02:10:00,VALID,915.803,VALID,0,VALID,98.5443,VALID,0.0339617,VALID,18.9995,VALID,58,VALID,0,
2004-03-02, 02:11:00,VALID,915.768,VALID,0,VALID,98.5875,VALID,0.0169808,VALID,18.9965,VALID,58,VALID,0.0744141,
2004-03-02, 02:12:00,VALID,915.748,VALID,0,VALID,98.6524,VALID,0.0339617,VALID,18.9804,VALID,58,VALID,0.446584,
2004-03-02, 02:13:00,VALID,915.734,VALID,0,VALID,98.7999,VALID,0,VALID,18.9511,VALID,83,VALID,0.610465,
2004-03-02, 02:14:00,VALID,915.714,VALID,0,VALID,99.0796,VALID,0,VALID,18.961,VALID,120,VALID,0.687855,
2004-03-02, 02:15:00,VALID,915.702,VALID,0,VALID,99.2615,VALID,-0.0679233,VALID,18.9751,VALID,121,VALID,0.689732,
2004-03-02, 02:16:00,VALID,915.681,VALID,0,VALID,99.3199,VALID,-0.101885,VALID,18.9625,VALID,122,VALID,0.637005,
2004-03-02, 02:17:00,VALID,915.66,VALID,0,VALID,99.456,VALID,-0.0849042,VALID,18.9659,VALID,122,VALID,0.6516,
2004-03-02, 02:18:00,VALID,915.642,VALID,0,VALID,99.2958,VALID,-0.0679233,VALID,18.9433,VALID,122,VALID,0.277248,
2004-03-02, 02:19:00,VALID,915.628,VALID,0,VALID,99.0885,VALID,-0.0679233,VALID,18.8497,VALID,122,VALID,0.0246711,
2004-03-02, 02:20:00,VALID,915.591,VALID,0,VALID,98.9931,VALID,-0.101885,VALID,18.7618,VALID,122,VALID,0,
2004-03-02, 02:21:00,VALID,915.562,VALID,0,VALID,98.9537,VALID,-0.0849042,VALID,18.7076,VALID,121,VALID,0,
2004-03-02, 02:22:00,VALID,915.553,VALID,0,VALID,98.9321,VALID,-0.0509425,VALID,18.6686,VALID,121,VALID,0,
2004-03-02, 02:23:00,VALID,915.535,VALID,0,VALID,99.292,VALID,-0.101885,VALID,18.6691,VALID,122,VALID,0.0849609,
2004-03-02, 02:24:00,VALID,915.505,VALID,0,VALID,99.4611,VALID,-0.0509425,VALID,18.6977,VALID,121,VALID,0.0323401,
2004-03-02, 02:25:00,VALID,915.501,VALID,0,VALID,99.3848,VALID,-0.101885,VALID,18.6947,VALID,121,VALID,0,
2004-03-02, 02:26:00,VALID,915.497,VALID,0,VALID,99.428,VALID,-0.101885,VALID,18.6786,VALID,121,VALID,0,
2004-03-02, 02:27:00,VALID,915.497,VALID,0,VALID,99.6264,VALID,-0.0679233,VALID,18.6915,VALID,121,VALID,0,
2004-03-02, 02:28:00,VALID,915.501,VALID,0,VALID,99.779,VALID,-0.0679233,VALID,18.7042,VALID,121,VALID,0.0474466,
2004-03-02, 02:29:00,VALID,915.494,VALID,0,VALID,99.8553,VALID,-0.0849042,VALID,18.7367,VALID,121,VALID,0,
2004-03-02, 02:30:00,VALID,915.507,VALID,0,VALID,99.8324,VALID,-0.0169808,VALID,18.7387,VALID,121,VALID,0,
2004-03-02, 02:31:00,VALID,915.507,VALID,0,VALID,99.8362,VALID,0,VALID,18.7357,VALID,121,VALID,0,
2004-03-02, 02:32:00,VALID,915.493,VALID,0,VALID,99.7765,VALID,-0.0169808,VALID,18.7129,VALID,121,VALID,0,
2004-03-02, 02:33:00,VALID,915.482,VALID,0,VALID,99.6722,VALID,0,VALID,18.6804,VALID,121,VALID,0,
2004-03-02, 02:34:00,VALID,915.469,VALID,0,VALID,99.5361,VALID,0.0169808,VALID,18.6322,VALID,121,VALID,0,
2004-03-02, 02:35:00,VALID,915.459,VALID,0,VALID,99.5616,VALID,0.0339617,VALID,18.6486,VALID,121,VALID,0.195929,
2004-03-02, 02:36:00,VALID,915.45,VALID,0,VALID,99.5984,VALID,0.0169808,VALID,18.6223,VALID,121,VALID,0.241146,
2004-03-02, 02:37:00,VALID,915.456,VALID,0,VALID,99.8642,VALID,0.0339617,VALID,18.6414,VALID,121,VALID,0.137091,
2004-03-02, 02:38:00,VALID,915.437,VALID,0,VALID,99.9842,VALID,0.0169808,VALID,18.703,VALID,121,VALID,0.150534,
2004-03-02, 02:39:00,VALID,915.427,VALID,0,VALID,99.8894,VALID,0,VALID,18.7161,VALID,121,VALID,0.187145,
2004-03-02, 02:40:00,VALID,915.416,VALID,0,VALID,99.6747,VALID,-0.101885,VALID,18.6719,VALID,121,VALID,0.219658,
2004-03-02, 02:41:00,VALID,915.403,VALID,0,VALID,99.5654,VALID,-0.0849042,VALID,18.6304,VALID,121,VALID,0.259588,
2004-03-02, 02:42:00,VALID,915.391,VALID,0,VALID,99.5488,VALID,-0.101885,VALID,18.5979,VALID,122,VALID,0.525073,
2004-03-02, 02:43:00,VALID,915.391,VALID,0,VALID,99.5387,VALID,-0.101885,VALID,18.5559,VALID,132,VALID,0.546875,
2004-03-02, 02:44:00,VALID,915.384,VALID,0,VALID,99.5247,VALID,-0.101885,VALID,18.534,VALID,134,VALID,0.56436,
2004-03-02, 02:45:00,VALID,915.368,VALID,0,VALID,99.6264,VALID,0,VALID,18.5164,VALID,142,VALID,0.610795,
2004-03-02, 02:46:00,VALID,915.366,VALID,0,VALID,99.7116,VALID,0.0169808,VALID,18.5231,VALID,145,VALID,0.608817,
2004-03-02, 02:47:00,VALID,915.359,VALID,0,VALID,99.6696,VALID,-0.0169808,VALID,18.5167,VALID,146,VALID,0.622093,
2004-03-02, 02:48:00,VALID,915.36,VALID,0,VALID,99.648,VALID,0,VALID,18.5008,VALID,142,VALID,0.637091,
2004-03-02, 02:49:00,VALID,915.35,VALID,0,VALID,99.6963,VALID,0,VALID,18.4777,VALID,140,VALID,0.574963,
2004-03-02, 02:50:00,VALID,915.362,VALID,0,VALID,99.8146,VALID,0,VALID,18.4839,VALID,141,VALID,0.424419,
2004-03-02, 02:51:00,VALID,915.332,VALID,0,VALID,99.9074,VALID,0,VALID,18.4869,VALID,141,VALID,0.296317,
2004-03-02, 02:52:00,VALID,915.317,VALID,0,VALID,99.9941,VALID,0,VALID,18.507,VALID,141,VALID,0.0592296,
2004-03-02, 02:53:00,VALID,915.28,VALID,0,VALID,100,VALID,0.0169808,VALID,18.5065,VALID,141,VALID,0.00186012,
2004-03-02, 02:54:00,VALID,915.249,VALID,0,VALID,100,VALID,0,VALID,18.5033,VALID,141,VALID,0,
2004-03-02, 02:55:00,VALID,915.222,VALID,0,VALID,99.7078,VALID,0,VALID,18.4131,VALID,141,VALID,0,
2004-03-02, 02:56:00,VALID,915.203,VALID,0,VALID,99.484,VALID,0.0169808,VALID,18.3004,VALID,141,VALID,0.0614347,
2004-03-02, 02:57:00,VALID,915.185,VALID,0,VALID,99.5069,VALID,0.0169808,VALID,18.2358,VALID,140,VALID,0.378089,
2004-03-02, 02:58:00,VALID,915.168,VALID,0,VALID,99.5234,VALID,0,VALID,18.1904,VALID,126,VALID,0.43892,
2004-03-02, 02:59:00,VALID,915.166,VALID,0,VALID,99.6646,VALID,0.0169808,VALID,18.168,VALID,116,VALID,0.358173,
2004-03-02, 03:00:00,VALID,915.17,VALID,0,VALID,99.9224,VALID,0.0169808,VALID,18.2137,VALID,116,VALID,0.238991,
2004-03-02, 03:01:00,VALID,915.178,VALID,0,VALID,100,VALID,0,VALID,18.2549,VALID,116,VALID,0.207317,
2004-03-02, 03:02:00,VALID,915.186,VALID,0,VALID,99.9741,VALID,0.0169808,VALID,18.2646,VALID,116,VALID,0.362942,
2004-03-02, 03:03:00,VALID,915.204,VALID,0,VALID,99.8438,VALID,0.0169808,VALID,18.2033,VALID,121,VALID,0.521984,
2004-03-02, 03:04:00,VALID,915.205,VALID,0,VALID,99.8884,VALID,0,VALID,18.1549,VALID,147,VALID,0.842262,
2004-03-02, 03:05:00,VALID,915.211,VALID,0,VALID,100,VALID,0,VALID,18.174,VALID,143,VALID,0.929501,
2004-03-02, 03:06:00,VALID,915.212,VALID,0,VALID,100,VALID,0,VALID,18.2683,VALID,139,VALID,0.820884,
2004-03-02, 03:07:00,VALID,915.205,VALID,0,VALID,100,VALID,0,VALID,18.3488,VALID,139,VALID,0.833147,
2004-03-02, 03:08:00,VALID,915.198,VALID,0,VALID,100,VALID,0,VALID,18.3878,VALID,137,VALID,0.798874,
2004-03-02, 03:09:00,VALID,915.185,VALID,0,VALID,100,VALID,0.0169808,VALID,18.4104,VALID,137,VALID,0.732143,
2004-03-02, 03:10:00,VALID,915.194,VALID,0,VALID,100,VALID,0.0169808,VALID,18.4104,VALID,138,VALID,0.581076,
2004-03-02, 03:11:00,VALID,915.199,VALID,0,VALID,100,VALID,0.0169808,VALID,18.42,VALID,139,VALID,0.330382,
2004-03-02, 03:12:00,VALID,915.197,VALID,0,VALID,100,VALID,0,VALID,18.4071,VALID,141,VALID,0.271151,
2004-03-02, 03:13:00,VALID,915.199,VALID,0,VALID,100,VALID,0.0339617,VALID,18.4032,VALID,142,VALID,0.373857,
2004-03-02, 03:14:00,VALID,915.203,VALID,0,VALID,100,VALID,0,VALID,18.4069,VALID,143,VALID,0.461124,
2004-03-02, 03:15:00,VALID,915.195,VALID,0,VALID,100,VALID,0,VALID,18.3619,VALID,152,VALID,0.545967,
2004-03-02, 03:16:00,VALID,915.183,VALID,0,VALID,100,VALID,0,VALID,18.2782,VALID,151,VALID,0.755664,
2004-03-02, 03:17:00,VALID,915.175,VALID,0,VALID,100,VALID,0.0169808,VALID,18.2453,VALID,147,VALID,0.588356,
2004-03-02, 03:18:00,VALID,915.174,VALID,0,VALID,100,VALID,0.0169808,VALID,18.2519,VALID,145,VALID,0.844866,
2004-03-02, 03:19:00,VALID,915.166,VALID,0,VALID,100,VALID,0,VALID,18.2838,VALID,145,VALID,0.837984,
2004-03-02, 03:20:00,VALID,915.17,VALID,0,VALID,100,VALID,0,VALID,18.3525,VALID,146,VALID,0.594477,
2004-03-02, 03:21:00,VALID,915.16,VALID,0,VALID,100,VALID,0.0339617,VALID,18.3972,VALID,146,VALID,0.660511,
2004-03-02, 03:22:00,VALID,915.155,VALID,0,VALID,100,VALID,0.0169808,VALID,18.4392,VALID,145,VALID,0.610176,
2004-03-02, 03:23:00,VALID,915.14,VALID,0,VALID,100,VALID,0.0169808,VALID,18.459,VALID,142,VALID,0.506541,
2004-03-02, 03:24:00,VALID,915.151,VALID,0,VALID,100,VALID,0,VALID,18.465,VALID,138,VALID,0.334484,
2004-03-02, 03:25:00,VALID,915.134,VALID,0,VALID,100,VALID,0,VALID,18.4588,VALID,138,VALID,0.27255,
2004-03-02, 03:26:00,VALID,915.136,VALID,0,VALID,100,VALID,0,VALID,18.4489,VALID,138,VALID,0.0142912,
2004-03-02, 03:27:00,VALID,915.12,VALID,0,VALID,100,VALID,0,VALID,18.4553,VALID,138,VALID,0,
2004-03-02, 03:28:00,VALID,915.107,VALID,0,VALID,100,VALID,-0.0169808,VALID,18.4719,VALID,138,VALID,0,
2004-03-02, 03:29:00,VALID,915.087,VALID,0,VALID,100,VALID,0,VALID,18.4689,VALID,138,VALID,0.207589,
2004-03-02, 03:30:00,VALID,915.08,VALID,0,VALID,100,VALID,-0.0679233,VALID,18.4422,VALID,133,VALID,0.505469,
2004-03-02, 03:31:01,VALID,915.084,VALID,0,VALID,100,VALID,-0.0339617,VALID,18.4397,VALID,132,VALID,0.626598,
2004-03-02, 03:32:00,VALID,915.088,VALID,0,VALID,100,VALID,-0.0339617,VALID,18.4397,VALID,132,VALID,0.539634,
2004-03-02, 03:33:00,VALID,915.082,VALID,0,VALID,100,VALID,-0.0169808,VALID,18.43,VALID,132,VALID,0.520008,
2004-03-02, 03:34:00,VALID,915.082,VALID,0,VALID,100,VALID,0,VALID,18.4039,VALID,132,VALID,0.464208,
2004-03-02, 03:35:00,VALID,915.104,VALID,0,VALID,100,VALID,0.0169808,VALID,18.3781,VALID,132,VALID,0.360085,
2004-03-02, 03:36:01,VALID,915.099,VALID,0,VALID,100,VALID,0,VALID,18.3684,VALID,132,VALID,0.308789,
2004-03-02, 03:37:00,VALID,915.101,VALID,0,VALID,100,VALID,0,VALID,18.3783,VALID,132,VALID,0.374628,